Карточка аэропорта UNEE

Внимание!
Информация на этой странице в стадии наполнения.
Если вы не увидели какой-то информации, или заметили неточность - пожалуйста сообщите нам!
Спасибо!
Команда RU-STAFF
Название аэропортаКемерово
Название аэропорта (англ.)Kemerovo
Превышение873 ft. (266.1 m.)
Координаты55°16.2', 86°6.6'
Высота перехода500m
Эшелон переходаQFE>=760mm:FL030; QFE<=759=>733mm:FL040; QFE<=732mm:FL050
Коды ответчика5260-5267
Зона ОрВДНовосибирск РПИ (UNNT)
Данные METARUNEE 271130Z 20006MPS 9999 SCT022CB 12/06 Q1006 R23/////// NOSIG RMK QFE732
Проноз погоды (TAF)UNEE 270500Z 2706/2806 19009G20MPS 8000 BKN020CB TX11/2707Z TN02/2722Z TEMPO 2706/2714 -SHRA BKN011CB BECMG 2708/2710 24009G20MPS BECMG 2714/2717 21003G08MPS BECMG 2800/2802 BKN040CB TEMPO 2802/2806 -SHRA BKN016CB
NOTAMshow/hide NOTAM
AWOS   TABLE

Информация о ВПП

ВПП Длина ВПП (м.) Покрытие Курс ВПП Частота ILS
053200Цементобетон46 
233200Цементобетон226109.1

Диспетчерские позиции

Позывной Наименование органа УВД Частота
UNEE_TWRКемерово-Старт118.3
UNEE_APPКемерово-Подход125.5



Спутниковое изображение